Weather History for Denver, CO

Change the Weather History Date:

Wednesday, October 10, 2012

  Actual Average Record
Temperature  
Mean Temperature 47 °F 53 °F  
Max Temperature 60 °F 68 °F 89 °F (1910)
Min Temperature 33 °F 39 °F 17 °F (2009)
Degree Days  
Heating Degree Days 18 12  
Month to date heating degree days 172 104  
Since 1 July heating degree days 241 245  
Cooling Degree Days 0 0  
Month to date cooling degree days 1 1  
Year to date cooling degree days 1236 765  
Moisture  
Dew Point 34 °F    
Average Humidity 61    
Maximum Humidity 82    
Minimum Humidity 39    
Precipitation  
Precipitation 0.00 in 0.04 in 0.99 in (2005)
Month to date precipitation T 0.36  
Year to date precipitation 8.35 12.68  
Snow  
Snow 0.00 in - - ()
Month to date snowfall 0.4  
Since 1 July snowfall 0.4  
Since 1 September snowfall 0.4  
Snow Depth 0.00 in    
Sea Level Pressure  
Sea Level Pressure 30.02 in    
Wind  
Wind Speed 5 mph (South)    
Max Wind Speed 13 mph    
Max Gust Speed 15 mph    
Visibility 9 miles    
Events      
T = Trace of Precipitation, MM = Missing Value Source: NWS Daily Summary

Daily Weather History Graph

Daily Weather History Graph

Search for Another Location

Airport:

Trip Planner

Search our weather history database for the weather conditions in past years. The results will help you decide how hot, cold, wet, or windy it might be!

Date:

Astronomy

Oct. 10, 2012 Rise Set
Actual Time 7:04 AM MDT 6:25 PM MDT
Civil Twilight 6:37 AM MDT 6:52 PM MDT
Nautical Twilight 6:05 AM MDT 7:24 PM MDT
Astronomical Twilight 5:34 AM MDT 7:55 PM MDT
Moon 1:43 AM MDT (10/10) 3:29 PM MDT (10/10)
Length of Visible Light 12h 15m
Length of Day
11h 21m
Waning Crescent, 26% of the Moon is Illuminated
Oct 10
Waning Crescent
Oct 15
New
Oct 21
First Quarter
Oct 29
Full
Nov 6
Last Quarter

Hourly Weather History & Observations

Time (MDT) Temp. Windchill Dew Point Humidity Pressure Visibility Wind Dir Wind Speed Gust Speed Precip Events Conditions
12:53 AM 41.0 °F 35.2 °F 32.0 °F 70% 30.14 in 10.0 mi South 9.2 mph - N/A   Scattered Clouds
1:53 AM 37.0 °F 31.0 °F 30.9 °F 79% 30.15 in 9.0 mi South 8.1 mph - N/A   Scattered Clouds
2:53 AM 37.0 °F 34.5 °F 30.9 °F 79% 30.14 in 9.0 mi SE 3.5 mph - N/A   Partly Cloudy
3:53 AM 36.0 °F - 30.0 °F 79% 30.12 in 10.0 mi Calm Calm - N/A   Partly Cloudy
4:53 AM 33.1 °F 27.7 °F 28.9 °F 85% 30.13 in 10.0 mi SSW 5.8 mph - N/A   Scattered Clouds
5:53 AM 36.0 °F 29.6 °F 30.0 °F 79% 30.12 in 9.0 mi WSW 8.1 mph - N/A   Mostly Cloudy
6:53 AM 35.6 °F 29.2 °F 30.2 °F 81% 30.14 in 8.0 mi WSW 8.1 mph - N/A   Scattered Clouds
7:53 AM 37.0 °F 31.6 °F 30.9 °F 79% 30.11 in 7.0 mi WSW 6.9 mph - N/A   Mostly Cloudy
8:53 AM 39.9 °F 34.5 °F 32.0 °F 73% 30.11 in 6.0 mi WSW 8.1 mph - N/A   Haze
9:53 AM 44.1 °F 41.5 °F 33.1 °F 65% 30.08 in 7.0 mi SW 4.6 mph - N/A   Mostly Cloudy
10:53 AM 48.0 °F - 34.0 °F 58% 30.06 in 8.0 mi Calm Calm - N/A   Mostly Cloudy
11:53 AM 51.1 °F - 34.0 °F 52% 30.03 in 9.0 mi SE 3.5 mph - N/A   Mostly Cloudy
12:53 PM 53.1 °F - 35.1 °F 50% 30.00 in 9.0 mi NNE 3.5 mph - N/A   Mostly Cloudy
1:53 PM 55.9 °F - 36.0 °F 47% 29.96 in 8.0 mi Variable 3.5 mph - N/A   Mostly Cloudy
2:53 PM 60.1 °F - 36.0 °F 41% 29.91 in 10.0 mi East 9.2 mph - N/A   Mostly Cloudy
3:53 PM 59.0 °F - 36.0 °F 42% 29.91 in 10.0 mi NE 8.1 mph - N/A   Mostly Cloudy
4:53 PM 59.0 °F - 36.0 °F 42% 29.91 in 10.0 mi NE 5.8 mph - N/A   Mostly Cloudy
5:53 PM 57.9 °F - 37.0 °F 46% 29.91 in 10.0 mi NNE 3.5 mph - N/A   Mostly Cloudy
6:53 PM 54.0 °F - 37.0 °F 53% 29.94 in 10.0 mi North 3.5 mph - N/A   Mostly Cloudy
7:53 PM 53.1 °F - 37.0 °F 55% 29.95 in 10.0 mi SE 3.5 mph - N/A   Mostly Cloudy
8:53 PM 48.0 °F - 36.0 °F 63% 29.96 in 10.0 mi South 4.6 mph - N/A   Mostly Cloudy
9:53 PM 51.1 °F - 37.0 °F 59% 29.94 in 10.0 mi SSW 3.5 mph - N/A   Mostly Cloudy
10:53 PM 50.0 °F - 37.0 °F 61% 29.93 in 10.0 mi SSW 5.8 mph - N/A   Mostly Cloudy
11:53 PM 50.0 °F - 36.0 °F 59% 29.91 in 10.0 mi SW 8.1 mph - N/A   Mostly Cloudy